When you browse on this site, cookies collect data to enhance your experience and personalize the content and advertising you see.
Visit our Privacy Policy to learn more. By continuing to use the site, you agree to this use of cookies and data.
  • en France
  • Liste des pays
  • À 7 jours
  • Température de l'eau
  • Carte satellitaire
  • Carte météo
  • Widgets météo
  • user-avatar
    Se connecter

    Météo par heure à Adélaïde

    Ce jour, 17 Février, Dimanche

    Heure Température Précipitation Vent Pression Humidité
    00:00 +23°C° 0 mm 2 m/s 756 mmHg 48%
    01:00 +21°C° 0 mm 2 m/s 756 mmHg 48%
    02:00 +21°C° 0 mm 2 m/s 756 mmHg 48%
    03:00 +21°C° 0 mm 2 m/s 755 mmHg 47%
    04:00 +21°C° 0 mm 2 m/s 755 mmHg 46%
    05:00 +23°C° 0 mm 1 m/s 756 mmHg 45%
    06:00 +23°C° 0 mm 1 m/s 756 mmHg 44%
    07:00 +25°C° 0 mm 1 m/s 756 mmHg 39%
    08:00 +27°C° 0 mm 1 m/s 756 mmHg 35%
    09:00 +29°C° 0 mm 1 m/s 756 mmHg 30%
    10:00 +31°C° 0 mm 1 m/s 755 mmHg 27%
    11:00 +33°C° 0 mm 1 m/s 755 mmHg 24%
    12:00 +35°C° 0 mm 1 m/s 755 mmHg 20%
    13:00 +35°C° 0 mm 2 m/s 754 mmHg 21%
    14:00 +35°C° 0 mm 2 m/s 753 mmHg 21%
    15:00 +34°C° 0 mm 3 m/s 753 mmHg 21%
    16:00 +33°C° 0 mm 3 m/s 753 mmHg 23%
    17:00 +31°C° 0 mm 3 m/s 753 mmHg 25%
    18:00 +30°C° 0 mm 3 m/s 752 mmHg 27%
    19:00 +29°C° 0 mm 3 m/s 753 mmHg 32%
    20:00 +28°C° 0 mm 3 m/s 753 mmHg 36%
    21:00 +26°C° 0 mm 4 m/s 753 mmHg 41%
    22:00 +25°C° 0 mm 4 m/s 752 mmHg 47%
    23:00 +23°C° 0 mm 4 m/s 752 mmHg 53%

    Demain, 18 Février, Lundi

    Heure Température Précipitation Vent Pression Humidité
    00:00 +22°C° 0 mm 4 m/s 752 mmHg 59%
    01:00 +22°C° 0 mm 4 m/s 752 mmHg 62%
    02:00 +22°C° 0 mm 4 m/s 752 mmHg 65%
    03:00 +22°C° 0 mm 4 m/s 752 mmHg 67%
    04:00 +21°C° 0 mm 4 m/s 752 mmHg 71%
    05:00 +21°C° 0 mm 4 m/s 752 mmHg 74%
    06:00 +21°C° 0 mm 4 m/s 753 mmHg 78%
    07:00 +21°C° 0 mm 4 m/s 753 mmHg 75%
    08:00 +21°C° 0 mm 4 m/s 753 mmHg 72%
    09:00 +22°C° 0 mm 5 m/s 754 mmHg 70%
    10:00 +23°C° 0 mm 5 m/s 754 mmHg 62%
    11:00 +25°C° 0 mm 5 m/s 754 mmHg 55%
    12:00 +27°C° 0 mm 5 m/s 754 mmHg 48%
    13:00 +27°C° 0 mm 5 m/s 754 mmHg 47%
    14:00 +26°C° 0 mm 6 m/s 754 mmHg 46%
    15:00 +26°C° 0 mm 6 m/s 754 mmHg 45%
    16:00 +23°C° 0 mm 6 m/s 754 mmHg 50%
    17:00 +22°C° 0 mm 6 m/s 755 mmHg 55%
    18:00 +20°C° 0 mm 6 m/s 755 mmHg 61%
    19:00 +19°C° 0 mm 6 m/s 756 mmHg 65%
    20:00 +17°C° 0 mm 5 m/s 756 mmHg 68%
    21:00 +16°C° 0 mm 5 m/s 757 mmHg 72%
    22:00 +17°C° 0 mm 4 m/s 757 mmHg 72%
    23:00 +17°C° 0 mm 4 m/s 757 mmHg 73%

    Après-demain, 19 Février, Mardi

    Heure Température Précipitation Vent Pression Humidité
    00:00 +17°C° 0 mm 4 m/s 757 mmHg 73%
    01:00 +15°C° 0 mm 4 m/s 757 mmHg 73%
    02:00 +15°C° 0 mm 4 m/s 757 mmHg 72%
    03:00 +16°C° 0 mm 3 m/s 757 mmHg 72%
    04:00 +16°C° 0 mm 3 m/s 757 mmHg 72%
    05:00 +16°C° 0 mm 3 m/s 757 mmHg 71%
    06:00 +16°C° 0 mm 3 m/s 758 mmHg 70%
    07:00 +17°C° 0 mm 3 m/s 758 mmHg 64%
    08:00 +18°C° 0 mm 3 m/s 758 mmHg 59%
    09:00 +20°C° 0 mm 3 m/s 759 mmHg 53%
    10:00 +20°C° 0 mm 4 m/s 758 mmHg 52%
    11:00 +20°C° 0 mm 4 m/s 758 mmHg 50%
    12:00 +21°C° 0 mm 4 m/s 758 mmHg 49%
    13:00 +21°C° 0 mm 4 m/s 757 mmHg 48%
    14:00 +22°C° 0 mm 4 m/s 757 mmHg 46%
    15:00 +22°C° 0 mm 4 m/s 757 mmHg 45%
    16:00 +21°C° 0 mm 4 m/s 757 mmHg 48%
    17:00 +21°C° 0 mm 4 m/s 757 mmHg 52%
    18:00 +20°C° 0 mm 4 m/s 757 mmHg 55%
    19:00 +19°C° 0 mm 4 m/s 758 mmHg 59%
    20:00 +18°C° 0 mm 3 m/s 758 mmHg 63%
    21:00 +17°C° 0 mm 3 m/s 759 mmHg 67%
    22:00 +16°C° 0 mm 3 m/s 758 mmHg 69%
    23:00 +16°C° 0 mm 3 m/s 758 mmHg 71%

    20 Février, Mercredi

    Heure Température Précipitation Vent Pression Humidité
    00:00 +16°C° 0 mm 2 m/s 758 mmHg 73%
    01:00 +16°C° 0 mm 2 m/s 758 mmHg 73%
    02:00 +16°C° 0 mm 2 m/s 758 mmHg 74%
    03:00 +15°C° 0 mm 2 m/s 758 mmHg 74%
    04:00 +15°C° 0 mm 2 m/s 758 mmHg 74%
    05:00 +16°C° 0 mm 1 m/s 758 mmHg 73%
    06:00 +16°C° 0 mm 1 m/s 758 mmHg 73%
    07:00 +18°C° 0 mm 1 m/s 758 mmHg 65%
    08:00 +20°C° 0 mm 1 m/s 758 mmHg 57%
    09:00 +21°C° 0 mm 2 m/s 759 mmHg 49%
    10:00 +23°C° 0 mm 2 m/s 758 mmHg 48%
    11:00 +24°C° 0 mm 3 m/s 758 mmHg 46%
    12:00 +23°C° 0 mm 4 m/s 758 mmHg 44%
    13:00 +23°C° 0 mm 4 m/s 757 mmHg 45%
    14:00 +23°C° 0 mm 5 m/s 757 mmHg 46%
    15:00 +23°C° 0 mm 5 m/s 757 mmHg 48%
    16:00 +22°C° 0 mm 5 m/s 757 mmHg 51%
    17:00 +22°C° 0 mm 4 m/s 758 mmHg 55%
    18:00 +21°C° 0 mm 4 m/s 758 mmHg 59%
    19:00 +20°C° 0 mm 4 m/s 758 mmHg 63%
    20:00 +19°C° 0 mm 4 m/s 759 mmHg 68%
    21:00 +18°C° 0 mm 3 m/s 759 mmHg 72%
    22:00 +17°C° 0 mm 3 m/s 759 mmHg 74%
    23:00 +17°C° 0 mm 3 m/s 759 mmHg 76%

    21 Février, Jeudi

    Heure Température Précipitation Vent Pression Humidité
    00:00 +17°C° 0 mm 3 m/s 759 mmHg 78%
    01:00 +16°C° 0 mm 3 m/s 759 mmHg 80%
    02:00 +16°C° 0 mm 2 m/s 759 mmHg 82%
    03:00 +16°C° 0 mm 2 m/s 759 mmHg 84%
    04:00 +16°C° 0 mm 2 m/s 759 mmHg 84%
    05:00 +16°C° 0 mm 2 m/s 759 mmHg 84%
    06:00 +16°C° 0 mm 3 m/s 760 mmHg 84%
    07:00 +18°C° 0 mm 3 m/s 760 mmHg 74%
    08:00 +20°C° 0 mm 2 m/s 760 mmHg 64%
    09:00 +23°C° 0 mm 2 m/s 761 mmHg 55%
    10:00 +24°C° 0 mm 3 m/s 761 mmHg 52%
    11:00 +25°C° 0 mm 3 m/s 760 mmHg 50%
    12:00 +26°C° 0 mm 4 m/s 760 mmHg 48%
    13:00 +26°C° 0 mm 4 m/s 760 mmHg 48%
    14:00 +26°C° 0 mm 5 m/s 760 mmHg 48%
    15:00 +26°C° 0 mm 5 m/s 759 mmHg 48%
    16:00 +23°C° 0 mm 5 m/s 760 mmHg 52%
    17:00 +22°C° 0 mm 5 m/s 760 mmHg 56%
    18:00 +20°C° 0 mm 5 m/s 760 mmHg 59%
    19:00 +19°C° 0 mm 5 m/s 761 mmHg 64%
    20:00 +17°C° 0 mm 5 m/s 761 mmHg 68%
    21:00 +16°C° 0 mm 5 m/s 762 mmHg 72%
    22:00 +16°C° 0 mm 5 m/s 762 mmHg 73%
    23:00 +16°C° 0 mm 5 m/s 762 mmHg 73%

    22 Février, Vendredi

    Heure Température Précipitation Vent Pression Humidité
    00:00 +16°C° 0 mm 5 m/s 761 mmHg 74%
    01:00 +15°C° 0 mm 5 m/s 761 mmHg 71%
    02:00 +15°C° 0 mm 5 m/s 761 mmHg 69%
    03:00 +15°C° 0 mm 4 m/s 761 mmHg 67%
    04:00 +14°C° 0 mm 4 m/s 761 mmHg 66%
    05:00 +14°C° 0 mm 5 m/s 762 mmHg 65%
    06:00 +14°C° 0 mm 5 m/s 762 mmHg 65%
    07:00 +17°C° 0 mm 4 m/s 762 mmHg 57%
    08:00 +19°C° 0 mm 4 m/s 763 mmHg 49%
    09:00 +21°C° 0 mm 3 m/s 763 mmHg 41%
    10:00 +24°C° 0 mm 3 m/s 762 mmHg 36%
    11:00 +26°C° 0 mm 3 m/s 762 mmHg 31%
    12:00 +28°C° 0 mm 3 m/s 762 mmHg 26%
    13:00 +29°C° 0 mm 3 m/s 761 mmHg 26%
    14:00 +29°C° 0 mm 4 m/s 761 mmHg 26%
    15:00 +29°C° 0 mm 4 m/s 760 mmHg 27%
    16:00 +28°C° 0 mm 5 m/s 760 mmHg 33%
    17:00 +26°C° 0 mm 5 m/s 760 mmHg 40%
    18:00 +25°C° 0 mm 5 m/s 761 mmHg 47%
    19:00 +22°C° 0 mm 5 m/s 761 mmHg 53%
    20:00 +21°C° 0 mm 5 m/s 761 mmHg 59%
    21:00 +20°C° 0 mm 4 m/s 761 mmHg 66%
    22:00 +21°C° 0 mm 4 m/s 761 mmHg 64%
    23:00 +21°C° 0 mm 4 m/s 761 mmHg 62%
    Voir plus